• In Moldova, Republic
  • List of Countries
  • For 7 days
  • Water Temperature
  • Satellite Maps
  • Weather Map
  • Weather Widgets
  • user-avatar
    Login

    Hourly Weather Wien

    Today, 21 October, Saturday

    Time Temperature Precipitation Wind Pressure Humidity
    00:00 +10°C° 0 mm 0 mps 745 mmHg 77%
    01:00 +10°C° 0 mm 0 mps 745 mmHg 77%
    02:00 +10°C° 0 mm 0 mps 744 mmHg 77%
    03:00 +10°C° 0 mm 0 mps 744 mmHg 77%
    04:00 +11°C° 0 mm 1 mps 744 mmHg 77%
    05:00 +11°C° 0 mm 1 mps 744 mmHg 77%
    06:00 +11°C° 0 mm 1 mps 745 mmHg 76%
    07:00 +12°C° 0 mm 1 mps 745 mmHg 75%
    08:00 +14°C° 0 mm 1 mps 745 mmHg 70%
    09:00 +15°C° 0 mm 1 mps 745 mmHg 65%
    10:00 +18°C° 0 mm 1 mps 745 mmHg 60%
    11:00 +19°C° 0 mm 2 mps 744 mmHg 57%
    12:00 +20°C° 0 mm 2 mps 744 mmHg 55%
    13:00 +21°C° 0 mm 2 mps 744 mmHg 52%
    14:00 +20°C° 0 mm 2 mps 743 mmHg 56%
    15:00 +20°C° 0 mm 2 mps 743 mmHg 60%
    16:00 +20°C° 0 mm 1 mps 743 mmHg 63%
    17:00 +19°C° 0 mm 1 mps 743 mmHg 67%
    18:00 +18°C° 0 mm 1 mps 743 mmHg 71%
    19:00 +16°C° 0 mm 1 mps 743 mmHg 75%
    20:00 +15°C° 0 mm 1 mps 743 mmHg 78%
    21:00 +15°C° 0 mm 1 mps 743 mmHg 80%
    22:00 +14°C° 0 mm 1 mps 743 mmHg 82%
    23:00 +14°C° 0 mm 1 mps 743 mmHg 83%

    Tomorrow, 22 October, Sunday

    Time Temperature Precipitation Wind Pressure Humidity
    00:00 +14°C° 0 mm 1 mps 743 mmHg 85%
    01:00 +13°C° 0 mm 1 mps 743 mmHg 86%
    02:00 +13°C° 0 mm 1 mps 743 mmHg 87%
    03:00 +13°C° 0 mm 1 mps 743 mmHg 88%
    04:00 +13°C° 0 mm 1 mps 743 mmHg 88%
    05:00 +13°C° 0.1 mm 2 mps 743 mmHg 87%
    06:00 +12°C° 0.1 mm 3 mps 743 mmHg 85%
    07:00 +12°C° 0.1 mm 4 mps 743 mmHg 84%
    08:00 +12°C° 0.2 mm 4 mps 743 mmHg 80%
    09:00 +13°C° 0.2 mm 5 mps 744 mmHg 77%
    10:00 +13°C° 0.2 mm 6 mps 744 mmHg 74%
    11:00 +12°C° 0.3 mm 5 mps 744 mmHg 75%
    12:00 +12°C° 0.3 mm 5 mps 744 mmHg 76%
    13:00 +12°C° 0.3 mm 4 mps 743 mmHg 77%
    14:00 +12°C° 0.3 mm 4 mps 743 mmHg 79%
    15:00 +11°C° 0.3 mm 4 mps 743 mmHg 80%
    16:00 +11°C° 0.3 mm 4 mps 743 mmHg 82%
    17:00 +11°C° 0.9 mm 4 mps 743 mmHg 82%
    18:00 +9°C° 0.9 mm 5 mps 743 mmHg 83%
    19:00 +9°C° 0.9 mm 5 mps 743 mmHg 83%
    20:00 +9°C° 0.9 mm 5 mps 743 mmHg 83%
    21:00 +8°C° 0.9 mm 5 mps 743 mmHg 83%
    22:00 +8°C° 0.9 mm 5 mps 743 mmHg 83%
    23:00 +8°C° 0.3 mm 5 mps 743 mmHg 82%

    Day after tomorrow, 23 October, Monday

    Time Temperature Precipitation Wind Pressure Humidity
    00:00 +8°C° 0.3 mm 5 mps 743 mmHg 81%
    01:00 +8°C° 0.3 mm 5 mps 743 mmHg 81%
    02:00 +8°C° 0 mm 5 mps 743 mmHg 80%
    03:00 +8°C° 0 mm 6 mps 743 mmHg 80%
    04:00 +7°C° 0 mm 6 mps 742 mmHg 80%
    05:00 +7°C° 0 mm 6 mps 742 mmHg 80%
    06:00 +6°C° 0 mm 7 mps 742 mmHg 80%
    07:00 +6°C° 0 mm 7 mps 742 mmHg 80%
    08:00 +8°C° 0 mm 7 mps 742 mmHg 77%
    09:00 +7°C° 0 mm 8 mps 742 mmHg 73%
    10:00 +9°C° 0 mm 8 mps 742 mmHg 69%
    11:00 +9°C° 0 mm 8 mps 742 mmHg 67%
    12:00 +10°C° 0 mm 8 mps 742 mmHg 64%
    13:00 +10°C° 0 mm 8 mps 742 mmHg 62%
    14:00 +10°C° 0 mm 7 mps 742 mmHg 63%
    15:00 +10°C° 0 mm 7 mps 742 mmHg 65%
    16:00 +10°C° 0 mm 7 mps 742 mmHg 67%
    17:00 +9°C° 0.1 mm 7 mps 743 mmHg 69%
    18:00 +9°C° 0.1 mm 7 mps 743 mmHg 72%
    19:00 +9°C° 0.1 mm 7 mps 743 mmHg 74%
    20:00 +8°C° 0 mm 7 mps 744 mmHg 75%
    21:00 +8°C° 0 mm 7 mps 744 mmHg 77%
    22:00 +8°C° 0 mm 7 mps 744 mmHg 78%
    23:00 +8°C° 0 mm 7 mps 745 mmHg 78%

    24 October, Tuesday

    Time Temperature Precipitation Wind Pressure Humidity
    00:00 +8°C° 0 mm 7 mps 745 mmHg 79%
    01:00 +8°C° 0 mm 7 mps 745 mmHg 79%
    02:00 +8°C° 0 mm 7 mps 745 mmHg 80%
    03:00 +8°C° 0 mm 7 mps 745 mmHg 80%
    04:00 +8°C° 0 mm 6 mps 746 mmHg 81%
    05:00 +8°C° 0 mm 6 mps 746 mmHg 81%
    06:00 +7°C° 0 mm 6 mps 746 mmHg 81%
    07:00 +7°C° 0 mm 6 mps 747 mmHg 81%
    08:00 +8°C° 0 mm 6 mps 747 mmHg 77%
    09:00 +9°C° 0 mm 7 mps 747 mmHg 73%
    10:00 +10°C° 0 mm 7 mps 748 mmHg 69%
    11:00 +11°C° 0 mm 7 mps 748 mmHg 67%
    12:00 +11°C° 0 mm 7 mps 748 mmHg 65%
    13:00 +12°C° 0 mm 7 mps 748 mmHg 62%
    14:00 +13°C° 0 mm 6 mps 748 mmHg 64%
    15:00 +12°C° 0 mm 5 mps 748 mmHg 65%
    16:00 +12°C° 0 mm 5 mps 749 mmHg 67%
    17:00 +11°C° 0 mm 4 mps 749 mmHg 71%
    18:00 +10°C° 0 mm 4 mps 750 mmHg 75%
    19:00 +9°C° 0 mm 3 mps 750 mmHg 79%
    20:00 +9°C° 0 mm 3 mps 750 mmHg 81%
    21:00 +8°C° 0 mm 3 mps 751 mmHg 83%
    22:00 +8°C° 0 mm 2 mps 751 mmHg 85%
    23:00 +8°C° 0 mm 2 mps 751 mmHg 86%

    25 October, Wednesday

    Time Temperature Precipitation Wind Pressure Humidity
    00:00 +7°C° 0 mm 2 mps 751 mmHg 87%
    01:00 +7°C° 0 mm 2 mps 751 mmHg 88%
    02:00 +7°C° 0 mm 2 mps 751 mmHg 89%
    03:00 +7°C° 0 mm 2 mps 751 mmHg 90%
    04:00 +7°C° 0 mm 2 mps 751 mmHg 91%
    05:00 +6°C° 0 mm 2 mps 751 mmHg 91%
    06:00 +6°C° 0 mm 2 mps 751 mmHg 91%
    07:00 +6°C° 0 mm 2 mps 751 mmHg 91%
    08:00 +8°C° 0 mm 2 mps 751 mmHg 83%
    09:00 +10°C° 0 mm 2 mps 751 mmHg 75%
    10:00 +13°C° 0 mm 2 mps 751 mmHg 68%
    11:00 +13°C° 0 mm 2 mps 751 mmHg 64%
    12:00 +14°C° 0 mm 2 mps 751 mmHg 61%
    13:00 +14°C° 0 mm 3 mps 750 mmHg 58%
    14:00 +15°C° 0 mm 2 mps 750 mmHg 61%
    15:00 +15°C° 0 mm 2 mps 750 mmHg 64%
    16:00 +14°C° 0 mm 1 mps 750 mmHg 67%
    17:00 +13°C° 0 mm 1 mps 750 mmHg 70%
    18:00 +13°C° 0 mm 1 mps 751 mmHg 72%
    19:00 +12°C° 0 mm 1 mps 751 mmHg 75%
    20:00 +12°C° 0 mm 1 mps 751 mmHg 76%
    21:00 +12°C° 0 mm 1 mps 751 mmHg 77%
    22:00 +12°C° 0 mm 1 mps 752 mmHg 77%
    23:00 +12°C° 0 mm 1 mps 752 mmHg 78%

    26 October, Thursday

    Time Temperature Precipitation Wind Pressure Humidity
    00:00 +12°C° 0 mm 1 mps 752 mmHg 78%
    01:00 +12°C° 0 mm 1 mps 752 mmHg 79%
    02:00 +11°C° 0 mm 1 mps 751 mmHg 81%
    03:00 +11°C° 0 mm 1 mps 751 mmHg 82%
    04:00 +11°C° 0 mm 1 mps 751 mmHg 84%
    05:00 +11°C° 0 mm 1 mps 751 mmHg 85%
    06:00 +10°C° 0 mm 1 mps 751 mmHg 87%
    07:00 +10°C° 0 mm 1 mps 751 mmHg 88%
    08:00 +12°C° 0 mm 1 mps 751 mmHg 82%
    09:00 +14°C° 0 mm 1 mps 751 mmHg 76%
    10:00 +16°C° 0 mm 1 mps 751 mmHg 70%
    11:00 +18°C° 0 mm 1 mps 751 mmHg 67%
    12:00 +19°C° 0 mm 1 mps 751 mmHg 64%
    13:00 +20°C° 0 mm 1 mps 751 mmHg 61%
    14:00 +19°C° 0 mm 1 mps 750 mmHg 64%
    15:00 +19°C° 0 mm 1 mps 750 mmHg 67%
    16:00 +18°C° 0 mm 1 mps 750 mmHg 70%
    17:00 +16°C° 0 mm 1 mps 750 mmHg 75%
    18:00 +15°C° 0 mm 1 mps 750 mmHg 79%
    19:00 +14°C° 0 mm 1 mps 751 mmHg 83%
    20:00 +13°C° 0 mm 1 mps 751 mmHg 85%
    21:00 +13°C° 0 mm 1 mps 751 mmHg 86%
    22:00 +13°C° 0 mm 1 mps 751 mmHg 87%
    23:00 +12°C° 0 mm 1 mps 751 mmHg 88%
    Show more